Cloud_Cover
100 100 100 100 100 100 100 100 100 100 100 100 100 100 100 100 100 100 100 100 100 100 100 100 100 100 100 100 100 100 100 100 100 100 100 80 12 63 6 85 100 96 8 34
100 100 100 100 100 100 100 100 100 100 100 100 100 100 100 100 100 100 100 100 100 100 100 100 100 100 100 100 100 100 100 100 100 100 100 100 100 100 28 65 4 4 4 1
100 100 100 100 100 100 100 100 100 100 100 100 100 100 100 100 100 100 100 100 100 100 100 100 100 100 100 100 100 100 100 100 100 100 100 100 100 100 100 80 5 0 0 2
100 100 100 100 100 100 100 100 100 100 100 100 100 100 100 100 100 100 100 100 100 100 100 100 100 100 100 100 100 100 100 100 100 100 100 100 99 100 100 100 100 100 57 3
100 100 100 100 100 100 100 100 100 100 100 100 100 100 100 100 100 100 100 100 100 100 100 100 100 100 100 100 100 100 100 100 100 100 100 100 100 51 48 90 100 93 100 17
100 100 100 100 100 100 100 100 100 100 100 100 100 100 100 100 100 100 100 100 100 100 100 100 100 100 100 100 100 100 100 100 100 100 100 100 100 42 100 91 90 49 93 76
100 100 100 100 100 100 100 100 100 100 100 100 100 100 100 100 100 100 100 100 100 100 100 100 100 100 100 100 100 100 100 100 100 100 100 100 100 100 100 99 100 77 100 100
100 100 100 100 100 100 100 100 100 100 100 100 100 100 100 100 100 100 100 100 100 100 100 100 100 100 100 100 100 100 100 100 100 100 100 99 100 100 100 42 99 100 100 100
100 100 100 100 100 100 90 100 100 87 94 100 94 100 100 100 100 100 100 100 100 100 100 100 100 99 100 98 100 100 100 100 100 100 100 95 100 100 100 100 91 100 100 100
100 100 100 100 100 100 100 100 92 48 95 87 100 100 100 100 100 100 100 100 100 100 100 100 100 100 100 100 100 100 100 100 100 100 100 82 100 100 100 61 100 100 85 96
100 100 100 100 100 100 100 100 96 88 99 100 100 100 100 100 100 100 100 100 100 100 100 100 100 100 100 100 100 100 100 100 86 100 100 32 100 100 84 91 100 100 100 100
100 100 100 100 100 100 100 100 100 100 97 90 100 100 100 100 100 100 100 100 100 100 100 100 100 100 100 100 99 100 97 82 87 88 88 100 89 100 100 100 100 100 100 100
97 100 100 100 100 100 100 100 100 100 100 99 86 100 100 100 100 100 100 100 100 100 100 100 100 100 100 100 100 79 92 95 45 73 100 100 100 98 100 100 100 100 100 100
16 64 100 96 100 100 100 100 100 100 100 98 67 96 100 100 100 100 100 100 100 100 100 100 100 100 100 100 100 100 100 99 84 31 92 66 100 97 100 100 100 100 100 100
8 19 47 84 100 100 100 100 100 100 100 86 42 100 100 100 100 100 100 100 100 100 100 100 100 100 100 100 100 100 100 100 91 83 33 98 100 91 99 100 100 100 100 100
100 52 5 22 64 100 100 100 100 100 100 100 100 11 52 100 100 100 100 100 100 100 100 100 100 100 100 100 93 100 100 100 100 99 96 5 48 100 100 100 100 100 100 100
100 100 49 5 4 69 100 100 74 99 100 100 100 91 90 70 100 99 100 100 100 100 100 100 100 100 100 100 93 100 100 100 100 94 89 97 84 14 15 50 22 20 30 91
100 98 100 40 5 4 72 100 100 100 100 100 100 90 66 97 92 90 100 100 100 100 100 100 100 100 100 86 96 100 83 17 6 8 5 64 91 100 97 21 5 5 18 92
76 100 65 18 92 98 100 100 100 100 100 100 100 100 96 100 99 91 84 100 100 100 100 100 100 100 67 100 100 100 100 31 5 47 60 6 5 8 90 90 71 27 51 64
100 94 71 100 100 100 100 100 100 100 100 100 100 100 98 100 95 98 100 82 88 73 93 100 100 100 100 100 100 100 100 71 18 8 34 5 20 49 75 80 96 99 93 82
100 100 99 100 100 100 100 84 100 96 99 100 100 91 100 100 100 100 100 100 100 100 100 100 100 98 100 100 100 100 100 63 100 94 55 61 99 100 100 100 100 100 100 100
100 100 100 100 100 99 100 100 98 97 100 100 100 100 100 100 100 100 100 100 100 100 99 98 100 100 100 100 100 100 99 100 100 100 100 100 100 100 100 100 100 100 100 100
100 100 100 100 100 100 100 100 100 95 82 81 88 100 100 100 100 100 100 100 100 100 100 100 100 100 98 58 28 26 68 90 100 100 100 100 100 100 100 100 100 100 100 99
100 100 100 100 100 100 100 100 100 100 96 96 100 100 100 100 100 100 100 100 100 100 100 100 100 100 100 90 77 92 95 63 79 99 100 100 100 100 100 100 100 100 92 76
99 100 100 100 100 100 100 100 100 100 100 100 100 100 100 100 100 86 99 100 91 100 100 100 100 100 100 100 100 100 100 100 100 99 97 100 100 100 100 100 100 100 100 100
100 100 100 100 100 100 100 100 99 100 100 100 100 100 100 100 100 100 100 100 100 100 100 100 100 100 100 100 100 100 100 98 93 84 97 100 94 88 97 98 91 91 100 100
100 100 100 98 100 100 100 100 100 100 100 100 100 100 100 100 100 100 100 100 100 100 100 100 100 100 100 100 100 100 100 100 96 100 100 100 100 100 100 100 100 96 100 100